Content
SEND FEEDBACK

Daily
Averages
Monthly
Summary
United States of America

CLARKSDALE, MISSISSIPPI


Home > North America > United States > Mississippi
Elevation: 52 meters     Latitude: 34 17N     Longitude: 090 31W

WEATHER
 
SELECT A DAY
Number of Records: 220,268;   Date Range: 3/17/05 - 7/20/14
 
SHARE

PRINT THIS DATA

[ ← Previous Day ]
WEATHER ALMANAC - 31 JANUARY, 2013
[ Next Day → ]
[ °F ]   °C
Weather ElementAverageHighLow
Temperature5.2 °C12 °C (1:55 pm)0 °C (2:55 am)
Dewpoint-0.5 °C3 °C (6:55 pm)-4 °C (11:35 pm)
Humidity69 %93 % (7:35 am)44 % (1:55 pm)
Barometer1021.7 hPa1028.1 hPa (11:55 pm)1019 hPa (12:35 am)
Wind Speed16.3 km/h35.2 km/h (9:55 pm)
Wind Gust48.1 km/h (9:55 pm)
Weather ElementAverage
Visibility16.1 km
Wind DirectionWSW (237.2 °)

Weather ElementTotal
Precipitation---
Heating Degree Days12.3 (Base 18.3)
Averaged from 71 records on 31 January, 2013
WEATHER CONDITIONS BREAKOUT
WIND DIRECTION BREAKOUT
WEATHER BY HOUR - 31 JANUARY, 2013
[ °F ]   °C
Local TimeTemperatureDewpointHumidityBarometerVisibilityWind DirectionWind SpeedGust SpeedPrecipitationEventsConditions
12:35 AM2 °C-3 °C70 %1019 hPa16.1 kmWNW (290°)24.1 km/h35.2 km/hClear
12:55 AM2 °C-3 °C70 %1019 hPa16.1 kmWNW (290°)20.4 km/h35.2 km/hClear
1:15 AM2 °C-3 °C70 %1019 hPa16.1 kmWNW (300°)18.5 km/hClear
1:35 AM1 °C-3 °C75 %1019 hPa16.1 kmWNW (290°)14.8 km/hClear
1:55 AM1 °C-3 °C75 %1019 hPa16.1 kmWNW (290°)14.8 km/hClear
2:15 AM1 °C-3 °C75 %1019.3 hPa16.1 kmWest (280°)9.3 km/hClear
2:35 AM1 °C-3 °C75 %1019 hPa16.1 kmWNW (290°)9.3 km/hClear
2:55 AM0 °C-3 °C80 %1019.3 hPa16.1 kmWest (280°)9.3 km/hClear
3:15 AM0 °C-3 °C80 %1019.3 hPa16.1 kmWest (260°)5.6 km/hClear
3:35 AM0 °C-2 °C87 %1019.3 hPa16.1 kmWest (260°)9.3 km/hClear
3:55 AM0 °C-2 °C87 %1019 hPa16.1 kmWSW (240°)5.6 km/hClear
4:15 AM0 °C-2 °C87 %1019.3 hPa16.1 kmWSW (240°)7.4 km/hClear
4:35 AM0 °C-2 °C87 %1019.6 hPa16.1 kmSW (230°)9.3 km/hClear
4:55 AM0 °C-2 °C87 %1020 hPa16.1 kmSW (230°)11.1 km/hClear
5:15 AM0 °C-2 °C87 %1020.3 hPa16.1 kmSW (220°)13 km/hClear
5:35 AM0 °C-2 °C87 %1020.7 hPa16.1 kmSW (230°)9.3 km/hClear
5:55 AM0 °C-2 °C87 %1021 hPa16.1 kmSW (230°)9.3 km/hClear
6:15 AM0 °C-2 °C87 %1021 hPa16.1 kmWSW (240°)9.3 km/hClear
6:35 AM0 °C-2 °C87 %1021.3 hPa16.1 kmWSW (250°)7.4 km/hClear
6:55 AM0 °C-2 °C87 %1021 hPa16.1 kmWest (260°)9.3 km/hClear
7:15 AM0 °C-2 °C87 %1021.7 hPa16.1 kmWSW (250°)7.4 km/hClear
7:35 AM0 °C-1 °C93 %1022 hPa16.1 kmSW (230°)5.6 km/hClear
7:55 AM1 °C-1 °C87 %1022.7 hPa16.1 kmCalmClear
8:15 AM2 °C0 °C87 %1022.7 hPa16.1 kmWSW (240°)11.1 km/hClear
8:35 AM2 °C0 °C87 %1023 hPa16.1 kmWSW (250°)9.3 km/hClear
8:55 AM3 °C0 °C81 %1023 hPa16.1 kmWSW (240°)9.3 km/hClear
9:15 AM4 °C-1 °C70 %1023.4 hPa16.1 kmWest (260°)9.3 km/hClear
9:35 AM5 °C-1 °C65 %1023.4 hPa16.1 kmSW (230°)5.6 km/hClear
9:55 AM5 °C0 °C70 %1023.4 hPa16.1 kmCalmClear
10:15 AM5 °C0 °C70 %1023 hPa16.1 kmCalmClear
10:35 AM6 °C0 °C66 %1023 hPa16.1 kmSE (140°)7.4 km/hClear
10:55 AM6 °C0 °C66 %1023 hPa16.1 kmSSE (160°)5.6 km/hClear
11:15 AM7 °C0 °C61 %1022.7 hPa16.1 kmSouth (170°)9.3 km/hClear
11:35 AM8 °C0 °C57 %1022.4 hPa16.1 kmSouth (180°)14.8 km/hClear
11:55 AM8 °C1 °C62 %1022 hPa16.1 kmSouth (170°)16.7 km/hClear
12:15 PM8 °C1 °C62 %1021.7 hPa16.1 kmSouth (190°)18.5 km/hClear
12:35 PM10 °C1 °C54 %1021.3 hPa16.1 kmSW (220°)20.4 km/h27.8 km/hClear
12:55 PM10 °C1 °C54 %1021 hPa16.1 kmSSW (210°)24.1 km/h31.5 km/hClear
1:15 PM11 °C1 °C50 %1020.3 hPa16.1 kmSSW (210°)24.1 km/h33.3 km/hClear
1:35 PM11 °C1 °C50 %1020 hPa16.1 kmSSW (210°)27.8 km/hClear
1:55 PM12 °C0 °C44 %1020 hPa16.1 kmSSW (210°)29.6 km/h37 km/hClear
2:15 PM12 °C0 °C44 %1019.6 hPa16.1 kmSW (220°)29.6 km/hClear
2:35 PM12 °C0 °C44 %1019.6 hPa16.1 kmSW (230°)29.6 km/hClear
2:55 PM12 °C0 °C44 %1019.6 hPa16.1 kmSW (220°)27.8 km/hClear
3:15 PM12 °C0 °C44 %1019.3 hPa16.1 kmSSW (210°)27.8 km/hClear
3:35 PM12 °C0 °C44 %1019 hPa16.1 kmSSW (210°)25.9 km/h35.2 km/hClear
3:55 PM12 °C0 °C44 %1019.3 hPa16.1 kmSW (220°)22.2 km/hClear
4:15 PM12 °C0 °C44 %1020 hPa16.1 kmSW (230°)20.4 km/hClear
4:35 PM12 °C0 °C44 %1020 hPa16.1 kmSW (230°)16.7 km/hClear
4:55 PM12 °C1 °C47 %1020 hPa16.1 kmSSW (210°)16.7 km/hClear
5:15 PM11 °C2 °C54 %1019.6 hPa16.1 kmSSW (210°)14.8 km/hClear
5:35 PM9 °C2 °C62 %1020 hPa16.1 kmSSW (200°)11.1 km/hClear
5:55 PM8 °C1 °C62 %1019.6 hPa16.1 kmSouth (180°)9.3 km/hClear
6:15 PM8 °C2 °C66 %1020 hPa16.1 kmSouth (170°)13 km/hClear
6:35 PM7 °C2 °C71 %1020.3 hPa16.1 kmSouth (190°)11.1 km/hClear
6:55 PM8 °C3 °C71 %1020.3 hPa16.1 kmSSW (200°)11.1 km/hClear
7:15 PM7 °C3 °C76 %1021 hPa16.1 kmSSW (210°)13 km/hClear
7:35 PM7 °C3 °C76 %1021 hPa16.1 kmSSW (210°)11.1 km/hClear
7:55 PM7 °C3 °C76 %1021.3 hPa16.1 kmSSW (210°)11.1 km/hClear
8:15 PM7 °C2 °C71 %1022.7 hPa16.1 kmNW (320°)27.8 km/h44.4 km/hScattered Clouds
8:35 PM8 °C1 °C62 %1023.4 hPa16.1 kmNorth (350°)27.8 km/h40.7 km/hScattered Clouds
8:55 PM7 °C1 °C66 %1023.7 hPa16.1 kmNNW (340°)24.1 km/hClear
9:15 PM7 °C1 °C66 %1024.4 hPa16.1 kmNNW (340°)22.2 km/hClear
9:35 PM6 °C0 °C66 %1024.7 hPa16.1 kmNNW (340°)24.1 km/h33.3 km/hClear
9:55 PM5 °C0 °C70 %1025.7 hPa16.1 kmNorth (350°)35.2 km/h48.1 km/hClear
10:15 PM3 °C0 °C81 %1026.1 hPa16.1 kmNorth (350°)24.1 km/h37 km/hClear
10:35 PM3 °C-1 °C75 %1026.8 hPa16.1 kmNNW (340°)35.2 km/h44.4 km/hClear
10:55 PM2 °C-2 °C75 %1027.4 hPa16.1 kmNNW (340°)31.5 km/hClear
11:15 PM2 °C-3 °C70 %1027.4 hPa16.1 kmNorth (350°)27.8 km/h37 km/hClear
11:35 PM2 °C-4 °C65 %1027.8 hPa16.1 kmNorth (350°)31.5 km/h42.6 km/hClear
11:55 PM1 °C-4 °C70 %1028.1 hPa16.1 kmNNW (340°)35.2 km/hScattered Clouds
Hourly data recorded from KCKM, located 0 kilometers away from Clarksdale, Mississippi







STORIES FROM OUR PARTNERS